Voltar ao catálogo

SITRO-AIS-41

AtivoNavegaçãoPO
NORAD 61760·PAYLOAD·🇷🇺 Russia
Este nome de satélite ainda não foi confirmado por fontes oficiais.

Lançado Nov 4, 2024 de Vostochny Cosmodrome

Loading…

Próximas Passagens (próximas 24 horas)

TLE

AtualizadoSource: Space-Track

Época: Sep 14, 2026, 15:07 UTC

1 61760U 24199AB  26257.63042179  .00234381  21936-4  79805-3 0  9997
2 61760  97.2671 141.2153 0002777 146.9764 213.1683 15.89806726151868

Acompanhe SITRO-AIS-41 em tempo real com AllMySat

Download on the App Store